GLO410 SBSN-SBBE

Flight info

Callsign GLO410
Flight time 1h 0m
Altitude 33000
Route EMAKE DCT PAKUT
Aircraft B38M/M-SDE1FGHILORVWXY/HB1

Departure

Time 2026-05-09 12:50
Airport Santarém - Maestro Wilson Fonseca International Airport (SBSN)

Arrival

Time 2026-05-09 13:51
Airport Val de Cans/Júlio Cezar Ribeiro International Airport (SBBE)
Time Latitude Longitude Altitude Speed Heading
2026-05-09 12:35 -2.42357 -54.78508 208 ft 0 kts 155°
2026-05-09 12:40 -2.42350 -54.78512 211 ft 1 kts 155°
2026-05-09 12:41 -2.42341 -54.78516 215 ft 1 kts 154°
2026-05-09 12:41 -2.42333 -54.78520 212 ft 1 kts 154°
2026-05-09 12:41 -2.42325 -54.78523 208 ft 1 kts 175°
2026-05-09 12:41 -2.42316 -54.78522 208 ft 1 kts 226°
2026-05-09 12:42 -2.42313 -54.78519 208 ft 0 kts 244°
2026-05-09 12:44 -2.42313 -54.78520 208 ft 0 kts 244°
2026-05-09 12:44 -2.42319 -54.78531 214 ft 4 kts 244°
2026-05-09 12:44 -2.42339 -54.78564 214 ft 7 kts 243°
2026-05-09 12:45 -2.42335 -54.78615 208 ft 8 kts 298°
2026-05-09 12:45 -2.42293 -54.78665 213 ft 10 kts 316°
2026-05-09 12:45 -2.42231 -54.78714 208 ft 12 kts 322°
2026-05-09 12:45 -2.42173 -54.78774 211 ft 12 kts 295°
2026-05-09 12:46 -2.42171 -54.78859 211 ft 14 kts 260°
2026-05-09 12:46 -2.42187 -54.78958 211 ft 15 kts 261°
2026-05-09 12:46 -2.42211 -54.79068 213 ft 17 kts 253°
2026-05-09 12:46 -2.42232 -54.79196 214 ft 20 kts 260°
2026-05-09 12:47 -2.42254 -54.79345 210 ft 23 kts 262°
2026-05-09 12:47 -2.42279 -54.79501 210 ft 23 kts 261°
2026-05-09 12:47 -2.42304 -54.79665 213 ft 25 kts 261°
2026-05-09 12:47 -2.42331 -54.79846 208 ft 27 kts 261°
2026-05-09 12:48 -2.42361 -54.80033 213 ft 28 kts 261°
2026-05-09 12:48 -2.42392 -54.80224 215 ft 16 kts 261°
2026-05-09 12:48 -2.42453 -54.80305 211 ft 11 kts 246°
2026-05-09 12:48 -2.42425 -54.80345 207 ft 3 kts 341°
2026-05-09 12:49 -2.42410 -54.80337 211 ft 2 kts 69°
2026-05-09 12:49 -2.42409 -54.80327 209 ft 0 kts 81°
2026-05-09 12:49 -2.42367 -54.80067 210 ft 81 kts 81°
2026-05-09 12:50 -2.42233 -54.79242 209 ft 156 kts 82°
2026-05-09 12:50 -2.42063 -54.78114 795 ft 175 kts 81°
2026-05-09 12:50 -2.41876 -54.76980 1997 ft 163 kts 81°
2026-05-09 12:50 -2.41677 -54.75773 2547 ft 188 kts 81°
2026-05-09 12:51 -2.41451 -54.74397 3090 ft 213 kts 81°
2026-05-09 12:51 -2.41198 -54.72853 3749 ft 234 kts 81°
2026-05-09 12:51 -2.40926 -54.71180 4487 ft 252 kts 82°
2026-05-09 12:51 -2.40642 -54.69436 5494 ft 255 kts 82°
2026-05-09 12:52 -2.40356 -54.67670 6485 ft 260 kts 82°
2026-05-09 12:52 -2.40066 -54.65892 7417 ft 264 kts 82°
2026-05-09 12:52 -2.39768 -54.64060 8326 ft 269 kts 81°
2026-05-09 12:52 -2.39466 -54.62199 9251 ft 274 kts 81°
2026-05-09 12:53 -2.39158 -54.60302 10148 ft 278 kts 81°
2026-05-09 12:53 -2.38839 -54.58339 10684 ft 296 kts 81°
2026-05-09 12:53 -2.38497 -54.56234 11068 ft 316 kts 81°
2026-05-09 12:53 -2.38133 -54.53992 11410 ft 336 kts 81°
2026-05-09 12:54 -2.37750 -54.51637 11841 ft 350 kts 81°
2026-05-09 12:54 -2.37073 -54.49271 12487 ft 356 kts 71°
2026-05-09 12:54 -2.36240 -54.46921 13171 ft 361 kts 71°
2026-05-09 12:54 -2.35401 -54.44535 13870 ft 364 kts 71°
2026-05-09 12:55 -2.34553 -54.42124 14420 ft 369 kts 71°
2026-05-09 12:55 -2.33699 -54.39695 15038 ft 371 kts 71°
2026-05-09 12:55 -2.32845 -54.37268 15631 ft 374 kts 71°
2026-05-09 12:55 -2.31976 -54.34796 16161 ft 378 kts 70°
2026-05-09 12:56 -2.31100 -54.32305 16785 ft 380 kts 70°
2026-05-09 12:56 -2.30217 -54.29795 17275 ft 385 kts 70°
2026-05-09 12:56 -2.29336 -54.27291 17836 ft 387 kts 70°
2026-05-09 12:56 -2.28439 -54.24738 18337 ft 390 kts 70°
2026-05-09 12:57 -2.27534 -54.22164 18759 ft 393 kts 70°
2026-05-09 12:57 -2.26620 -54.19567 19214 ft 395 kts 70°
2026-05-09 12:57 -2.25799 -54.16964 19606 ft 399 kts 78°
2026-05-09 12:57 -2.25394 -54.14218 20060 ft 400 kts 81°
2026-05-09 12:58 -2.24989 -54.11445 20435 ft 404 kts 81°
2026-05-09 12:58 -2.24586 -54.08650 20855 ft 406 kts 81°
2026-05-09 12:58 -2.24183 -54.05837 21257 ft 408 kts 81°
2026-05-09 12:58 -2.23781 -54.03024 21632 ft 411 kts 81°
2026-05-09 12:59 -2.23376 -54.00188 22029 ft 413 kts 81°
2026-05-09 12:59 -2.22973 -53.97365 22389 ft 416 kts 81°
2026-05-09 12:59 -2.22561 -53.94484 22770 ft 417 kts 81°
2026-05-09 12:59 -2.22150 -53.91606 23125 ft 420 kts 81°
2026-05-09 13:00 -2.21735 -53.88705 23456 ft 422 kts 81°
2026-05-09 13:00 -2.21323 -53.85817 23760 ft 424 kts 81°
2026-05-09 13:00 -2.20903 -53.82885 24032 ft 427 kts 81°
2026-05-09 13:00 -2.20483 -53.79946 24324 ft 428 kts 81°
2026-05-09 13:01 -2.20059 -53.76982 24581 ft 431 kts 81°
2026-05-09 13:01 -2.19632 -53.73997 24853 ft 433 kts 81°
2026-05-09 13:01 -2.19205 -53.71012 25131 ft 435 kts 81°
2026-05-09 13:01 -2.18774 -53.67994 25339 ft 439 kts 81°
2026-05-09 13:02 -2.18347 -53.65009 25667 ft 439 kts 81°
2026-05-09 13:02 -2.17914 -53.61978 25872 ft 443 kts 81°
2026-05-09 13:02 -2.17474 -53.58913 26176 ft 444 kts 81°
2026-05-09 13:02 -2.17037 -53.55858 26399 ft 448 kts 81°
2026-05-09 13:03 -2.16593 -53.52758 26662 ft 449 kts 81°
2026-05-09 13:03 -2.16150 -53.49660 26918 ft 452 kts 81°
2026-05-09 13:03 -2.15702 -53.46530 27127 ft 455 kts 81°
2026-05-09 13:03 -2.15252 -53.43394 27414 ft 456 kts 81°
2026-05-09 13:04 -2.14806 -53.40280 27599 ft 460 kts 81°
2026-05-09 13:04 -2.14352 -53.37109 27875 ft 461 kts 81°
2026-05-09 13:04 -2.13894 -53.33911 28084 ft 465 kts 82°
2026-05-09 13:04 -2.13435 -53.30712 28320 ft 467 kts 81°
2026-05-09 13:05 -2.12972 -53.27476 28557 ft 469 kts 81°
2026-05-09 13:05 -2.12513 -53.24274 28774 ft 471 kts 81°
2026-05-09 13:05 -2.12046 -53.21018 28997 ft 474 kts 81°
2026-05-09 13:05 -2.11577 -53.17746 29223 ft 476 kts 81°
2026-05-09 13:06 -2.11103 -53.14450 29419 ft 479 kts 81°
2026-05-09 13:06 -2.10629 -53.11140 29652 ft 481 kts 81°
2026-05-09 13:06 -2.10152 -53.07818 29842 ft 484 kts 81°
2026-05-09 13:06 -2.09681 -53.04534 30086 ft 485 kts 81°
2026-05-09 13:07 -2.09200 -53.01180 30216 ft 488 kts 81°
2026-05-09 13:07 -2.08717 -52.97809 30448 ft 489 kts 81°
2026-05-09 13:07 -2.08231 -52.94429 30575 ft 492 kts 81°
2026-05-09 13:07 -2.07743 -52.91025 30802 ft 493 kts 82°
2026-05-09 13:08 -2.07255 -52.87628 31014 ft 494 kts 82°
2026-05-09 13:08 -2.06773 -52.84274 31286 ft 493 kts 82°
2026-05-09 13:08 -2.06286 -52.80883 31546 ft 493 kts 82°
2026-05-09 13:08 -2.05798 -52.77484 31813 ft 493 kts 82°
2026-05-09 13:09 -2.05309 -52.74083 32083 ft 493 kts 82°
2026-05-09 13:09 -2.04822 -52.70690 32353 ft 493 kts 82°
2026-05-09 13:09 -2.04339 -52.67333 32627 ft 493 kts 82°
2026-05-09 13:09 -2.03851 -52.63937 32897 ft 493 kts 82°
2026-05-09 13:10 -2.03363 -52.60541 33011 ft 494 kts 82°
2026-05-09 13:10 -2.02388 -52.53766 33003 ft 491 kts 82°
2026-05-09 13:11 -2.01417 -52.47016 33000 ft 490 kts 82°
2026-05-09 13:11 -2.00447 -52.40275 33000 ft 489 kts 82°
2026-05-09 13:12 -1.99481 -52.33565 33001 ft 489 kts 82°
2026-05-09 13:12 -1.98511 -52.26828 33010 ft 489 kts 82°
2026-05-09 13:13 -1.97549 -52.20148 33004 ft 487 kts 82°
2026-05-09 13:13 -1.96582 -52.13430 33005 ft 488 kts 82°
2026-05-09 13:14 -1.95615 -52.06724 33003 ft 487 kts 82°
2026-05-09 13:16 -1.91916 -51.81072 33007 ft 487 kts 82°
2026-05-09 13:16 -1.90948 -51.74365 33007 ft 487 kts 82°
2026-05-09 13:17 -1.89980 -51.67656 33002 ft 487 kts 82°
2026-05-09 13:17 -1.89011 -51.60945 33006 ft 487 kts 82°
2026-05-09 13:18 -1.88050 -51.54292 33005 ft 486 kts 82°
2026-05-09 13:18 -1.87080 -51.47579 33005 ft 486 kts 82°
2026-05-09 13:19 -1.86119 -51.40926 33000 ft 486 kts 82°
2026-05-09 13:19 -1.85152 -51.34235 33002 ft 486 kts 82°
2026-05-09 13:20 -1.84185 -51.27550 33002 ft 486 kts 82°
2026-05-09 13:20 -1.83216 -51.20847 33002 ft 486 kts 82°
2026-05-09 13:21 -1.82247 -51.14147 33002 ft 486 kts 82°
2026-05-09 13:21 -1.81286 -51.07502 33001 ft 487 kts 82°
2026-05-09 13:22 -1.80316 -51.00799 33000 ft 487 kts 82°
2026-05-09 13:22 -1.79811 -50.94055 33012 ft 486 kts 88°
2026-05-09 13:23 -1.79257 -50.77208 32999 ft 486 kts 88°
2026-05-09 13:24 -1.79038 -50.70443 32999 ft 486 kts 88°
2026-05-09 13:24 -1.78820 -50.63719 32999 ft 486 kts 88°
2026-05-09 13:25 -1.78602 -50.56958 32999 ft 486 kts 88°
2026-05-09 13:26 -1.78274 -50.46869 33000 ft 486 kts 88°
2026-05-09 13:26 -1.78054 -50.40102 32998 ft 486 kts 88°
2026-05-09 13:27 -1.77836 -50.33394 32994 ft 486 kts 88°
2026-05-09 13:27 -1.77616 -50.26641 32995 ft 486 kts 88°
2026-05-09 13:27 -1.77506 -50.23272 32698 ft 481 kts 88°
2026-05-09 13:28 -1.77398 -50.19946 31575 ft 489 kts 88°
2026-05-09 13:28 -1.77286 -50.16504 30509 ft 496 kts 88°
2026-05-09 13:28 -1.77173 -50.13075 29916 ft 489 kts 89°
2026-05-09 13:28 -1.76922 -50.09699 29206 ft 484 kts 83°
2026-05-09 13:29 -1.76490 -50.06372 28403 ft 482 kts 82°
2026-05-09 13:29 -1.76048 -50.03051 27553 ft 481 kts 82°
2026-05-09 13:29 -1.75601 -49.99736 26669 ft 481 kts 82°
2026-05-09 13:29 -1.75154 -49.96429 25889 ft 479 kts 82°
2026-05-09 13:30 -1.74715 -49.93188 25249 ft 474 kts 82°
2026-05-09 13:30 -1.74276 -49.89944 24653 ft 468 kts 82°
2026-05-09 13:30 -1.73842 -49.86738 24082 ft 463 kts 82°
2026-05-09 13:30 -1.73414 -49.83579 23406 ft 452 kts 82°
2026-05-09 13:31 -1.72996 -49.80485 22204 ft 447 kts 82°
2026-05-09 13:31 -1.72582 -49.77428 21106 ft 440 kts 82°
2026-05-09 13:31 -1.72176 -49.74433 20363 ft 431 kts 82°
2026-05-09 13:31 -1.71776 -49.71478 19775 ft 427 kts 82°
2026-05-09 13:32 -1.71383 -49.68581 19182 ft 424 kts 82°
2026-05-09 13:32 -1.70594 -49.62756 17939 ft 419 kts 82°
2026-05-09 13:32 -1.70202 -49.59863 17302 ft 416 kts 82°
2026-05-09 13:33 -1.69817 -49.57020 16711 ft 412 kts 82°
2026-05-09 13:33 -1.69434 -49.54193 16133 ft 408 kts 82°
2026-05-09 13:33 -1.69054 -49.51394 15563 ft 405 kts 82°
2026-05-09 13:33 -1.68683 -49.48651 15006 ft 402 kts 82°
2026-05-09 13:34 -1.68308 -49.45885 14447 ft 399 kts 82°
2026-05-09 13:34 -1.67936 -49.43152 13863 ft 397 kts 82°
2026-05-09 13:34 -1.67562 -49.40405 13171 ft 396 kts 82°
2026-05-09 13:34 -1.67191 -49.37682 12630 ft 392 kts 82°
2026-05-09 13:35 -1.66830 -49.35030 12138 ft 387 kts 82°
2026-05-09 13:35 -1.66470 -49.32389 11825 ft 378 kts 82°
2026-05-09 13:35 -1.66121 -49.29822 11640 ft 366 kts 82°
2026-05-09 13:35 -1.65782 -49.27335 11450 ft 355 kts 82°
2026-05-09 13:36 -1.65453 -49.24923 11264 ft 345 kts 82°
2026-05-09 13:36 -1.65138 -49.22605 11100 ft 335 kts 82°
2026-05-09 13:36 -1.64828 -49.20333 10933 ft 325 kts 82°
2026-05-09 13:36 -1.64527 -49.18127 10781 ft 315 kts 82°
2026-05-09 13:37 -1.64236 -49.15986 10631 ft 306 kts 83°
2026-05-09 13:37 -1.63951 -49.13901 10491 ft 297 kts 83°
2026-05-09 13:37 -1.63677 -49.11883 10349 ft 288 kts 83°
2026-05-09 13:37 -1.63409 -49.09923 10210 ft 280 kts 83°
2026-05-09 13:38 -1.63153 -49.08052 10071 ft 272 kts 83°
2026-05-09 13:38 -1.62899 -49.06196 9845 ft 268 kts 83°
2026-05-09 13:38 -1.62649 -49.04359 9541 ft 266 kts 83°
2026-05-09 13:38 -1.62398 -49.02525 9243 ft 264 kts 83°
2026-05-09 13:39 -1.62150 -49.00715 8959 ft 261 kts 83°
2026-05-09 13:39 -1.61905 -48.98925 8681 ft 259 kts 83°
2026-05-09 13:39 -1.61665 -48.97169 8408 ft 256 kts 83°
2026-05-09 13:39 -1.61425 -48.95411 8148 ft 254 kts 84°
2026-05-09 13:40 -1.61186 -48.93669 7881 ft 251 kts 84°
2026-05-09 13:40 -1.60951 -48.91944 7613 ft 249 kts 84°
2026-05-09 13:40 -1.60716 -48.90232 7350 ft 247 kts 84°
2026-05-09 13:40 -1.60484 -48.88536 7090 ft 245 kts 84°
2026-05-09 13:41 -1.60253 -48.86851 6831 ft 246 kts 84°
2026-05-09 13:41 -1.60019 -48.85138 6568 ft 251 kts 84°
2026-05-09 13:41 -1.59781 -48.83401 6301 ft 254 kts 84°
2026-05-09 13:41 -1.59542 -48.81652 6002 ft 254 kts 84°
2026-05-09 13:42 -1.59303 -48.79912 5719 ft 252 kts 84°
2026-05-09 13:42 -1.59069 -48.78203 5451 ft 250 kts 84°
2026-05-09 13:42 -1.58834 -48.76481 5170 ft 248 kts 84°
2026-05-09 13:42 -1.58601 -48.74779 4984 ft 242 kts 84°
2026-05-09 13:43 -1.58383 -48.73196 4894 ft 219 kts 84°
2026-05-09 13:43 -1.58186 -48.71758 4771 ft 199 kts 85°
2026-05-09 13:43 -1.58007 -48.70448 4646 ft 181 kts 84°
2026-05-09 13:43 -1.57844 -48.69250 4542 ft 174 kts 84°
2026-05-09 13:44 -1.57647 -48.68056 4498 ft 173 kts 75°
2026-05-09 13:44 -1.56998 -48.67074 4442 ft 170 kts 52°
2026-05-09 13:44 -1.56195 -48.66206 4349 ft 169 kts 51°
2026-05-09 13:44 -1.55399 -48.65370 4226 ft 159 kts 50°
2026-05-09 13:45 -1.54650 -48.64597 4087 ft 153 kts 50°
2026-05-09 13:45 -1.53917 -48.63843 3936 ft 152 kts 50°
2026-05-09 13:45 -1.53176 -48.63086 3816 ft 152 kts 50°
2026-05-09 13:45 -1.52435 -48.62332 3708 ft 152 kts 50°
2026-05-09 13:46 -1.51691 -48.61574 3602 ft 153 kts 49°
2026-05-09 13:46 -1.50948 -48.60818 3495 ft 153 kts 49°
2026-05-09 13:46 -1.50203 -48.60062 3346 ft 152 kts 48°
2026-05-09 13:46 -1.49458 -48.59306 3127 ft 152 kts 48°
2026-05-09 13:47 -1.48726 -48.58562 2904 ft 152 kts 48°
2026-05-09 13:47 -1.47984 -48.57809 2689 ft 151 kts 48°
2026-05-09 13:47 -1.47245 -48.57059 2491 ft 152 kts 47°
2026-05-09 13:47 -1.46500 -48.56305 2283 ft 152 kts 47°
2026-05-09 13:48 -1.45758 -48.55552 2064 ft 151 kts 47°
2026-05-09 13:48 -1.45016 -48.54800 1872 ft 151 kts 47°
2026-05-09 13:48 -1.44290 -48.54063 1694 ft 150 kts 46°
2026-05-09 13:48 -1.43560 -48.53323 1618 ft 149 kts 47°
2026-05-09 13:49 -1.42829 -48.52582 1620 ft 150 kts 46°
2026-05-09 13:49 -1.42086 -48.51825 1228 ft 158 kts 47°
2026-05-09 13:49 -1.41296 -48.51046 787 ft 158 kts 45°
2026-05-09 13:49 -1.40528 -48.50308 506 ft 149 kts 46°
2026-05-09 13:50 -1.39826 -48.49552 337 ft 148 kts 50°
2026-05-09 13:50 -1.39127 -48.48820 201 ft 147 kts 46°
2026-05-09 13:50 -1.38377 -48.48070 65 ft 154 kts 47°
2026-05-09 13:50 -1.37689 -48.47378 50 ft 127 kts 44°
2026-05-09 13:51 -1.37397 -48.47087 57 ft 20 kts 45°
2026-05-09 13:51 -1.37296 -48.46988 56 ft 21 kts 38°
2026-05-09 13:51 -1.37195 -48.46931 57 ft 14 kts 65°
2026-05-09 13:51 -1.37242 -48.46920 53 ft 13 kts 223°
2026-05-09 13:52 -1.37332 -48.47015 51 ft 24 kts 228°
2026-05-09 13:52 -1.37474 -48.47164 56 ft 35 kts 223°
2026-05-09 13:52 -1.37662 -48.47359 52 ft 40 kts 226°
2026-05-09 13:52 -1.37872 -48.47559 50 ft 39 kts 223°
2026-05-09 13:53 -1.38148 -48.47642 53 ft 46 kts 184°
2026-05-09 13:53 -1.38471 -48.47662 53 ft 35 kts 186°
2026-05-09 13:53 -1.38666 -48.47722 59 ft 19 kts 258°
2026-05-09 13:53 -1.38740 -48.47828 55 ft 24 kts 199°
2026-05-09 13:54 -1.38854 -48.47887 58 ft 3 kts 227°